Location: Ago
(8.4667°N, 4.4833°E)
Time: 22:47:40
(UTC+00:00)

Okean 2 - Pass Details

Date: 18 September 2020
Orbit: 560 x 577 km, 82.5° (Epoch: 20 October)

Event Time Altitude Azimuth Distance (km) Brightness Sun altitude
Rises 18:38:38 0° 4° (N) 2,768 6.9 -15.3°
Reaches altitude 10° 18:40:52 10° 9° (N) 1,869 6.0 -15.8°
Maximum altitude 18:44:53 52° 86° (E) 708 3.4 -16.8°
Drops below altitude 10° 18:48:53 10° 163° (SSE) 1,861 5.8 -17.8°
Enters shadow 18:50:35 - 167° (SSE) 2,550 6.5 -18.2°
